Hauptseite
METAR-TAF:

METAR-TAF

Flughäfen :

Nancy, Frankreich

Breite: 48-41N, Länge: 006-13E, Höhe: 225 m

Beobachtung

Neuester Wetterbericht von vor 42 Minuten, um 14:30 UTC
Wind 12 kt aus West/Südwest
Temperatur 5°C
Luftfeuchtigkeit 81%
Luftdruck 1012 hPa
Sichtweite 10 km oder mehr

METAR: LFSN 191430Z AUTO 24012KT 9999 SCT021/// BKN026/// BKN031/// ///TCU 05/02 Q1012

Zeit: 16:12 (15:12 UTC)


TAF: fehlend

Wetterbeobachtungen und Prognosen von mehr als 4000 Flughäfen (METAR und TAF Bericht).

Die verfügbaren Stationen werden durch gelbe und rote Markierungen auf der Karte dargestellt.

Führen Sie die Maus auf sie, um den Namen der Station zu sehen.

Darauf klicken, um die Beobachtung von Wetterbeobachtungen und Prognosen zu sehen.

Um die Karte zu ändern : klicken Sie auf den grünen Tasten mit einem schwarzen Kreuz Zum Vergrößern, auf den grünen Button mit einem Gedankenstrich zu verkleinern, oder auf die grünen Pfeile für benachbarte Karten.


METAR-TAF: